STARLINK-31428, 59367

Orbit data source: Space-Track

STARLINK-31428, 59367 is a payload satellite owned by SpaceX/Seattle (US) in LEO that was launched on Sun, 31 Mar 2024 UTC via an FALCON 9 launch vehicle from the Air Force Eastern Test Range (AFETR). Payload-class satellites include a variety of spacecraft equipped with specific instruments for various scientific and technological missions. These include communications satellites like Starlink; space stations such as the ISS; scientific satellites like the Hubble; Earth observation satellites from companies like Planet Labs, Umbra, and HawkEye 360; GPS; miniature CubeSats for education and research; and military/defense satellites.

Loading next visibility...
Identifier
59367, 2024-060V
Orbit
LEO
Country
Flag of USUS
Related business
Manufacturer
SpaceX/Seattle
Mission
Operational spacecraft
Bus & Motor
STARLINK V2M, Unknown motor
Mass
730 kg wet, ~700 kg dry
Launch date (UTC)
2024-03-31 (2 years ago)
Launch vehicle
FALCON 9
Launch site
Air Force Eastern Test Range (AFETR)
Object type
Payload
Rocket body
Debris
Shape & HBR
Unknown shape, 17.7 m
Radar Cross Section
Large (>1 m²)

Expand to show TLE details & history
Last TLE update: 14 hours ago

TLE from 14 hours ago
0 STARLINK-31428
1 59367U 24060V   25289.24239156  .00010931  00000-0  40600-3 0  9997
2 59367  43.0013 355.4315 0001367 255.5484 104.5216 15.27591661 87972
Epoch: 2025-10-16T05:49Z
TLE epoch observation values (Epoch: 2025-10-16T05:49:02.630Z)
Latitude
-0.00003°
Longitude
-116.83442°
Altitude
483.025 km
Speed
7.626 km/s
True Right ascension
23h 41m 43s
True Declination
0° 00' 00"
Sunlit
Object was in full shadow at epoch
Visualization orbit readout
Latitude
Unknown
Longitude
Unknown
Altitude
Unknown
Speed
Unknown
Apparent Right ascension
Unknown
Apparent Declination
Unknown
Sunlit
N/A
Visualization observer readout
Local Sidereal Time
14:29:34
Azimuth
Unknown
Elevation
Unknown
Doppler factor
Unknown
Orbital elements
Apogee altitude
485.897 km
Perigee altitude
484.021 km
Semi-major axis
6,863.096 km
Eccentricity
0.00014
Inclination
43.0013°
RAAN
355.4315°
Arg. of periapsis
255.5484°
True anomaly
104.53676°
Mean anomaly
104.5216°
Eccentric anomaly
104.52918°
Mean motion
3.81736 °/min
Orbital period
94.31 mins
BSTAR
0.000406
Loading maneuver chart data...
Computing Atmospheric mass density...
Loading historical data...
Loading historical data...
Loading historical data...
Loading historical data...
Loading historical data...
Loading historical data...
Loading historical data...

Documentation

Showing up to 5 results
|